Flag for U.S.A. Weather past 2 weeks in Paradise, California, U.S.A.

Now
50 °F

Clear.


Feels Like: 48 °F
Forecast: 44 / 54 °F
Wind: 6 mph from South

Location: Chico Municipal

Current Time: Jan 27, 2015 at 6:48:30 AM

Latest Report: Jan 27, 2015 at 5:35 AM


Visibility: 10 mi

Pressure: 30.11 "Hg

Humidity: 94%

Dew point: 48 °F

Location of ParadiseLocation

Historic Weather in Paradise — Graph

°F

Paradise temperature yesterday

Maximum temperature yesterday: 63 °F (at 2:55 PM)
Minimum temperature yesterday: 39 °F (at 4:55 AM)
Average temperature yesterday: 49 °F

Past Weeks' High & Low Weather Summary

 TemperatureHumidityPressure
High75 °F (Jan 24, 2:47 PM)100% (Jan 12, 5:15 AM)30.40 "Hg (Jan 12, 5:15 AM)
Low34 °F (Jan 25, 7:51 AM)35% (Jan 23, 2:58 PM)29.96 "Hg (Jan 26, 3:55 PM)
Average48 °F87%30.22 "Hg
* Reported Jan 12 5:15 AM — Jan 27 5:35 AM, Paradise, Weather by CustomWeather, © 2014

Note: Actual official high and low records may vary slightly from our data, if they occured in-between our weather recording intervals... More about our weather records

Advertising

Paradise weather history for previous 24 hours

 ConditionsComfort  
Time TempWeatherWind HumidityBarometerVisibility
5:35 AM
Jan 27
50 °FClear.6 mph94%30.11 "Hg10 mi
5:15 AM50 °FClear.7 mph88%30.11 "Hg10 mi
4:55 AM50 °FClear.6 mph88%30.11 "Hg10 mi
4:35 AM48 °FClear.6 mph94%30.10 "Hg10 mi
4:15 AM48 °FClear.No wind94%30.09 "Hg10 mi
3:55 AM48 °FClear.No wind94%30.08 "Hg10 mi
3:35 AM50 °FClear.No wind88%30.07 "Hg10 mi
3:15 AM50 °FClear.No wind88%30.06 "Hg10 mi
2:55 AM48 °FClear.No wind94%30.05 "Hg10 mi
2:35 AM52 °FClear.6 mph77%30.03 "Hg10 mi
2:15 AM50 °FClear.7 mph82%30.03 "Hg10 mi
1:55 AM50 °FClear.6 mph82%30.03 "Hg10 mi
1:35 AM50 °FClear.6 mph82%30.03 "Hg10 mi
1:15 AM50 °FClear.3 mph82%30.03 "Hg10 mi
12:55 AM50 °FClear.6 mph82%30.03 "Hg10 mi
12:35 AM50 °FClear.6 mph82%30.02 "Hg10 mi
12:15 AM50 °FClear.No wind88%30.03 "Hg10 mi
11:55 PM
Jan 26
48 °FClear.No wind94%30.03 "Hg10 mi
11:35 PM52 °FClear.No wind82%30.03 "Hg10 mi
11:15 PM54 °FClear.No wind77%30.02 "Hg10 mi
10:55 PM54 °FClear.No wind77%30.03 "Hg10 mi
10:35 PM54 °FClear.No wind77%30.03 "Hg10 mi
10:15 PM52 °FClear.No wind82%30.03 "Hg10 mi
9:55 PM54 °FClear.No wind77%30.03 "Hg10 mi
9:35 PM54 °FClear.No wind77%30.03 "Hg10 mi
9:15 PM52 °FClear.No wind82%30.02 "Hg10 mi
8:55 PM52 °FPassing clouds.5 mph82%30.02 "Hg10 mi
8:15 PM54 °FOvercast.3 mph77%30.00 "Hg10 mi
7:55 PM54 °FOvercast.3 mph77%29.99 "Hg10 mi
7:35 PM55 °FPassing clouds.5 mph77%29.99 "Hg10 mi
6:57 PM55 °FPassing clouds.6 mph72%29.99 "Hg10 mi
6:15 PM57 °FOvercast.5 mph67%29.98 "Hg10 mi
5:55 PM57 °FPassing clouds.6 mph67%29.97 "Hg10 mi
3:55 PM63 °FBroken clouds.6 mph56%29.96 "Hg10 mi
2:55 PM63 °FBroken clouds.6 mph56%29.98 "Hg10 mi
1:47 PM59 °FPartly sunny.No wind51%29.99 "Hg25 mi
12:55 PM57 °FBroken clouds.7 mph72%30.00 "Hg10 mi
11:48 AM54 °FBroken clouds.7 mph82%30.04 "Hg10 mi
10:58 AM50 °FPartly sunny.9 mph94%30.06 "Hg8 mi
9:52 AM46 °FPartly sunny.9 mph100%30.08 "Hg8 mi
8:47 AM41 °FFog.12 mph100%30.10 "Hg3 mi
7:47 AM39 °FFog.7 mph100%30.09 "Hg3 mi
6:55 AM43 °FFog.7 mph100%30.10 "Hg6 mi
Weather by CustomWeather, © 2014

See weather overviewHow to use our weather pages